Flag for U.S.A. Weather past 2 weeks in Austin, Texas, U.S.A.

Now
78 °F

Overcast.


Feels Like: 81 °F
Forecast: 75 / 97 °F
Wind: 5 mph from North

Location: Camp Mabry / Austin City

Current Time: Jul 28, 2015 at 5:32:47 AM

Latest Report: Jul 28, 2015 at 4:51 AM


Visibility: 8 mi

Pressure: 29.90 "Hg

Humidity: 87%

Dew point: 74 °F

Location of AustinLocation

Historic Weather in Austin — Graph

°F

Austin temperature yesterday

Maximum temperature yesterday: 99 °F (at 3:51 PM)
Minimum temperature yesterday: 77 °F (at 4:51 AM)
Average temperature yesterday: 87 °F

Past Weeks' High & Low Weather Summary

 TemperatureHumidityPressure
High99 °F (Jul 27, 3:51 PM)94% (Jul 21, 6:51 AM)30.03 "Hg (Jul 21, 6:51 AM)
Low75 °F (Jul 13, 5:51 AM)34% (Jul 14, 4:51 PM)29.79 "Hg (Jul 21, 6:51 PM)
Average86 °F64%29.91 "Hg
* Reported Jul 13 3:51 AM — Jul 28 3:51 AM, Austin, Weather by CustomWeather, © 2015

Note: Actual official high and low records may vary slightly from our data, if they occured in-between our weather recording intervals... More about our weather records

Advertising

Austin weather history for previous 24 hours

 ConditionsComfort  
Time TempWeatherWind HumidityBarometerVisibility
3:51 AM
Tue, Jul 28
79 °FOvercast.7 mph88%29.90 "Hg8 mi
2:51 AM79 °FPassing clouds.7 mph84%29.91 "Hg9 mi
1:51 AM79 °FPassing clouds.6 mph84%29.93 "Hg10 mi
12:51 AM81 °FClear.5 mph77%29.92 "Hg10 mi
11:51 PM
Mon, Jul 27
83 °FClear.8 mph72%29.92 "Hg10 mi
10:51 PM85 °FClear.9 mph65%29.90 "Hg10 mi
9:51 PM88 °FClear.7 mph55%29.87 "Hg10 mi
8:51 PM91 °FScattered clouds.13 mph45%29.84 "Hg10 mi
7:51 PM92 °FPassing clouds.8 mph43%29.82 "Hg10 mi
6:51 PM94 °FPassing clouds.6 mph40%29.81 "Hg10 mi
5:51 PM96 °FPassing clouds.7 mph38%29.81 "Hg10 mi
4:51 PM98 °FSunny.6 mph35%29.83 "Hg10 mi
3:51 PM99 °FScattered clouds.6 mph37%29.84 "Hg10 mi
2:51 PM96 °FPassing clouds.6 mph38%29.87 "Hg10 mi
1:51 PM97 °FSunny.5 mph39%29.89 "Hg10 mi
12:51 PM94 °FSunny.7 mph48%29.91 "Hg10 mi
11:51 AM91 °FSunny.N/A54%29.92 "Hg10 mi
10:51 AM88 °FPassing clouds.5 mph61%29.93 "Hg10 mi
9:51 AM84 °FPartly sunny.3 mph72%29.93 "Hg9 mi
8:58 AM81 °FScattered clouds.5 mph79%29.97 "Hg7 mi
7:51 AM78 °FFog.6 mph87%29.91 "Hg5 mi
6:51 AM78 °FMostly cloudy.5 mph87%29.90 "Hg7 mi
5:51 AM77 °FFog.No wind90%29.88 "Hg6 mi
Weather by CustomWeather, © 2015

See weather overviewHow to use our weather pages